Puyallup, WA

5:54 AM PDT on June 21, 2018 (GMT -0700)
Pierce County - Thun Field

Weather History for KPLU - September, 2017

Change the Weather History Date:

Sunday, September 3, 2017

  Actual Average (KTCM) Record (KTCM)
Temperature  
Mean Temperature 72 °F -  
Max Temperature 89 °F 71 °F 91 °F (1988)
Min Temperature 55 °F 48 °F 39 °F (1956)
Cooling Degree Days 7    
Growing Degree Days 22 (Base 50)    
Moisture  
Dew Point 59 °F    
Average Humidity 69    
Maximum Humidity 100    
Minimum Humidity 36    
Precipitation  
Precipitation 0.00 in - - ()
Sea Level Pressure  
Sea Level Pressure 30.01 in    
Wind  
Wind Speed 3 mph (North)    
Max Wind Speed 6 mph    
Max Gust Speed 15 mph    
Visibility 10 miles    
Events      
Averages and records for this station are not official NWS values.
T = Trace of Precipitation, MM = Missing Value Source: NWS Daily Summary

Daily Weather History Graph

Daily Weather History Graph

Search for Another Location

Airport or City:

Astronomy

Sep. 03, 2017 Rise Set
Actual Time 6:31 AM PDT 7:44 PM PDT
Civil Twilight 6:00 AM PDT 8:15 PM PDT
Nautical Twilight 5:22 AM PDT 8:53 PM PDT
Astronomical Twilight 4:41 AM PDT 9:33 PM PDT
Moon 6:35 PM PDT (9/3) 3:38 AM PDT (9/3)
Length of Visible Light 14h 15m
Length of Day
13h 12m
Waxing Gibbous, 93% of the Moon is Illuminated
Sep 3
Waxing Gibbous
Sep 6
Full
Sep 12
Last Quarter
Sep 19
New
Sep 27
First Quarter

Hourly Weather History & Observations

Time (PDT) Temp. Heat Index Dew Point Humidity Pressure Visibility Wind Dir Wind Speed Gust Speed Precip Events Conditions
12:15 AM 64.4 °F - 59.0 °F 83% 29.97 in 10.0 mi North - - N/A   Clear
12:35 AM 64.4 °F - 59.0 °F 83% 29.97 in 10.0 mi North - - N/A   Clear
12:55 AM 62.6 °F - 59.0 °F 88% 29.97 in 10.0 mi North - - N/A   Clear
1:15 AM 62.6 °F - 59.0 °F 88% 29.97 in 10.0 mi North - - N/A   Clear
1:35 AM 62.6 °F - 59.0 °F 88% 29.97 in 10.0 mi North - - N/A   Clear
1:55 AM 60.8 °F - 57.2 °F 88% 29.98 in 10.0 mi North - - N/A   Clear
2:15 AM 59.0 °F - 57.2 °F 94% 29.98 in 10.0 mi North - - N/A   Clear
2:35 AM 60.8 °F - 59.0 °F 94% 29.99 in 10.0 mi North - - N/A   Clear
2:55 AM 59.0 °F - 57.2 °F 94% 29.98 in 10.0 mi North - - N/A   Scattered Clouds
3:15 AM 59.0 °F - 59.0 °F 100% 29.99 in 10.0 mi North - - N/A   Overcast
3:35 AM 59.0 °F - 57.2 °F 94% 29.99 in 10.0 mi North - - N/A   Mostly Cloudy
3:55 AM 59.0 °F - 57.2 °F 94% 29.99 in 10.0 mi North - - N/A   Overcast
4:15 AM 59.0 °F - 57.2 °F 94% 29.99 in 10.0 mi North - - N/A   Overcast
4:35 AM 57.2 °F - 57.2 °F 100% 29.98 in 10.0 mi North - - N/A   Overcast
4:55 AM 57.2 °F - 57.2 °F 100% 29.99 in 10.0 mi North - - N/A   Overcast
5:15 AM 57.2 °F - 57.2 °F 100% 29.99 in 10.0 mi North - - N/A   Overcast
5:35 AM 57.2 °F - 57.2 °F 100% 29.99 in 10.0 mi North - - N/A   Overcast
5:55 AM 57.2 °F - 57.2 °F 100% 29.99 in 10.0 mi North - - N/A   Overcast
6:15 AM 55.4 °F - 55.4 °F 100% 29.99 in 10.0 mi North - - N/A   Overcast
6:35 AM 57.2 °F - 57.2 °F 100% 29.99 in 10.0 mi North - - N/A   Partly Cloudy
6:55 AM 55.4 °F - 55.4 °F 100% 30.00 in 10.0 mi North - - N/A   Clear
7:15 AM 55.4 °F - 55.4 °F 100% 30.00 in 10.0 mi North - - N/A   Clear
7:35 AM 57.2 °F - 57.2 °F 100% 30.01 in 10.0 mi North - - N/A   Clear
7:55 AM 59.0 °F - 57.2 °F 94% 30.01 in 10.0 mi North - - N/A   Clear
8:15 AM 64.4 °F - 57.2 °F 77% 30.02 in 10.0 mi North - - N/A   Clear
8:35 AM 66.2 °F - 57.2 °F 73% 30.02 in 10.0 mi North - - N/A   Clear
8:55 AM 69.8 °F - 57.2 °F 64% 30.02 in 10.0 mi North - - N/A   Clear
9:15 AM 71.6 °F - 59.0 °F 64% 30.02 in 10.0 mi North - - N/A   Clear
9:35 AM 73.4 °F - 59.0 °F 61% 30.02 in 10.0 mi North - - N/A   Clear
9:55 AM 75.2 °F - 59.0 °F 57% 30.03 in 10.0 mi North - - N/A   Clear
10:15 AM 77.0 °F - 59.0 °F 54% 30.03 in 10.0 mi North - - N/A   Clear
10:35 AM 77.0 °F - 60.8 °F 57% 30.04 in 10.0 mi North - - N/A   Clear
10:55 AM 78.8 °F - 60.8 °F 54% 30.04 in 10.0 mi North - - N/A   Clear
11:15 AM 80.6 °F 81.1 °F 59.0 °F 48% 30.04 in 10.0 mi North - - N/A   Clear
11:35 AM 80.6 °F 81.5 °F 60.8 °F 51% 30.04 in 10.0 mi North - - N/A   Clear
11:55 AM 82.4 °F 82.9 °F 60.8 °F 48% 30.04 in 10.0 mi North - - N/A   Clear
12:15 PM 82.4 °F 82.9 °F 60.8 °F 48% 30.04 in 10.0 mi North - - N/A   Clear
12:35 PM 84.2 °F 84.4 °F 60.8 °F 45% 30.04 in 10.0 mi North - - N/A   Clear
12:55 PM 84.2 °F 84.4 °F 60.8 °F 45% 30.04 in 10.0 mi North - - N/A   Clear
1:15 PM 86.0 °F 86.1 °F 60.8 °F 43% 30.03 in 10.0 mi North - - N/A   Clear
1:35 PM 86.0 °F 86.1 °F 60.8 °F 43% 30.03 in 10.0 mi North - - N/A   Clear
1:55 PM 87.8 °F 87.6 °F 60.8 °F 40% 30.03 in 10.0 mi North - - N/A   Clear
2:15 PM 87.8 °F 88.5 °F 62.6 °F 43% 30.03 in 10.0 mi North - - N/A   Clear
2:35 PM 87.8 °F 87.6 °F 60.8 °F 40% 30.03 in 10.0 mi North - - N/A   Clear
2:55 PM 87.8 °F 87.6 °F 60.8 °F 40% 30.02 in 10.0 mi Variable 4.6 mph - N/A   Clear
3:15 PM 87.8 °F 87.6 °F 60.8 °F 40% 30.02 in 10.0 mi Variable 4.6 mph 11.5 mph N/A   Scattered Clouds
3:35 PM 87.8 °F 87.6 °F 60.8 °F 40% 30.02 in 10.0 mi Variable 5.8 mph 15.0 mph N/A   Mostly Cloudy
3:55 PM 86.0 °F 86.1 °F 60.8 °F 43% 30.02 in 10.0 mi Variable 3.5 mph - N/A   Mostly Cloudy
4:15 PM 87.8 °F 87.6 °F 60.8 °F 40% 30.02 in 10.0 mi Variable 4.6 mph - N/A   Partly Cloudy
4:35 PM 87.8 °F 87.6 °F 60.8 °F 40% 30.02 in 10.0 mi Variable 4.6 mph - N/A   Partly Cloudy
4:55 PM 89.6 °F 88.9 °F 59.0 °F 36% 30.01 in 10.0 mi Variable 5.8 mph - N/A   Partly Cloudy
5:15 PM 87.8 °F 87.1 °F 59.0 °F 38% 30.01 in 10.0 mi Variable 4.6 mph - N/A   Partly Cloudy
5:35 PM 87.8 °F 87.1 °F 59.0 °F 38% 30.00 in 10.0 mi Variable 4.6 mph - N/A   Clear
5:55 PM 87.8 °F 87.1 °F 59.0 °F 38% 30.00 in 10.0 mi Calm Calm - N/A   Clear
6:15 PM 86.0 °F 85.4 °F 59.0 °F 40% 30.00 in 10.0 mi Calm Calm - N/A   Clear
6:35 PM 84.2 °F 83.8 °F 59.0 °F 42% 30.00 in 10.0 mi Calm Calm - N/A   Clear
6:55 PM 82.4 °F 82.5 °F 59.0 °F 45% 30.00 in 10.0 mi Calm Calm - N/A   Clear
7:15 PM 80.6 °F 81.5 °F 60.8 °F 51% 30.00 in 10.0 mi Calm Calm - N/A   Clear
7:35 PM 77.0 °F - 60.8 °F 57% 30.00 in 10.0 mi Calm Calm - N/A   Clear
7:55 PM 75.2 °F - 60.8 °F 61% 30.01 in 10.0 mi Calm Calm - N/A   Clear
8:15 PM 73.4 °F - 60.8 °F 65% 30.02 in 10.0 mi Calm Calm - N/A   Clear
8:35 PM 71.6 °F - 60.8 °F 69% 30.02 in 10.0 mi Calm Calm - N/A   Clear
8:55 PM 71.6 °F - 60.8 °F 69% 30.03 in 10.0 mi Calm Calm - N/A   Clear
9:15 PM 69.8 °F - 60.8 °F 73% 30.03 in 10.0 mi Calm Calm - N/A   Clear
9:35 PM 68.0 °F - 60.8 °F 78% 30.03 in 10.0 mi Calm Calm - N/A   Clear
9:55 PM 68.0 °F - 59.0 °F 73% 30.04 in 10.0 mi Calm Calm - N/A   Partly Cloudy
10:15 PM 66.2 °F - 59.0 °F 78% 30.04 in 10.0 mi Calm Calm - N/A   Partly Cloudy
10:35 PM 64.4 °F - 59.0 °F 83% 30.04 in 10.0 mi Calm Calm - N/A   Clear
10:55 PM 64.4 °F - 59.0 °F 83% 30.05 in 10.0 mi Calm Calm - N/A   Clear
11:15 PM 64.4 °F - 59.0 °F 83% 30.05 in 10.0 mi Calm Calm - N/A   Clear
11:35 PM 64.4 °F - 59.0 °F 83% 30.05 in 10.0 mi Calm Calm - N/A   Partly Cloudy
11:55 PM 64.4 °F - 59.0 °F 83% 30.05 in 10.0 mi Calm Calm - N/A   Partly Cloudy